Voltar ao catálogo

STARLINK-34810

AtivoComunicaçõesSSO
NORAD 65068·PAYLOAD·🇺🇸 United States

Lançado Jul 31, 2025 de Vandenberg Space Force Base

Loading…

Próximas Passagens (próximas 24 horas)

TLE

AtualizadoSource: CelesTrak SupGP

Época: Sep 15, 2026, 02:31 UTC

1 65068C 25165N   26258.10534722  .01973700  00000+0  73905-1 0  2580
2 65068  97.2842 329.3566 0001548  87.8038 341.4646 15.26361921    10

Acompanhe STARLINK-34810 em tempo real com AllMySat

Download on the App Store